Lexington Weather

Lexington, Massachusetts, USA

23°F
1/21/2021 9:15am 
  • Lexington Conditions: Clear
  • Temperature: 22.8°F / -5.1°CWarmer 1.2°F than last hour.
  • Dew Point: 12.2°FIncreased 0.2°Fsince last hour.
  • Relative Humidity: 63%Decreased 3.0% since last hour.
  • Wind: Wind from SW SW 2 mph, 10-min avg: 1 mph, gust: 7 mph
  • Barometer: 29.78 inFalling 0.02  inHg/hr Falling Slowly
  • Visibility: 10 miles
  • Snow Today: Trace
  •   

Regional Weather Roundup
for Boston / Norton, MA

        
000
ASUS41 KBOX 200904
RWRBOX

REGIONAL WEATHER ROUNDUP
NATIONAL WEATHER SERVICE BOSTON/NORTON MA
400 AM EST WED JAN 20 2021

NOTE:  "FAIR" INDICATES FEW OR NO CLOUDS BELOW 12,000 FEET WITH NO 
SIGNIFICANT WEATHER AND/OR OBSTRUCTIONS TO VISIBILITY.

MAZALL-201000-
EASTERN MASSACHUSETTS
  
CITY           SKY/WX    TMP DP  RH WIND       PRES   REMARKS
BOSTON         CLOUDY    32  22  66 SW10      29.92F WCI  24          
BEVERLY        CLOUDY    32  23  69 SW8       29.90F WCI  25          
LAWRENCE       CLOUDY    31  23  72 SW5       29.91F WCI  26          
BEDFORD        CLOUDY    30  22  72 SW5       29.90F WCI  25          
BLUE HILL        N/A     29  21  72 SW8       29.88F WCI  21          
NORWOOD        CLOUDY    32  22  66 CALM      29.92F                  
MARSHFIELD     CLOUDY    32  25  74 SW5       29.92F WCI  27          
PLYMOUTH       MOCLDY    30  23  75 W5        29.91F WCI  25          
TAUNTON        MOCLDY    33  22  63 SW3       29.92F                  
NEW BEDFORD    CLOUDY    28  23  81 SW5       29.92F WCI  23          
$$

MAZALL-201000-
CAPE COD AND THE ISLANDS
  
CITY           SKY/WX    TMP DP  RH WIND       PRES   REMARKS
FALMOUTH       PTCLDY    32  23  69 W7        29.92F WCI  26          
HYANNIS        PTCLDY    32  23  69 CALM      29.91F                  
CHATHAM        PTCLDY    32  22  66 W5        29.94F WCI  27          
PROVINCETOWN   MOCLDY    35  26  69 W14       29.93F WCI  26          
NANTUCKET      PTCLDY    34  25  69 W5        29.94F WCI  30          
MARTHAS VNYRD  CLOUDY    38  24  57 W7        29.93F                  
$$
 
MAZALL-201000-
CENTRAL AND WESTERN MASSACHUSETTS
  
CITY           SKY/WX    TMP DP  RH WIND       PRES   REMARKS
WORCESTER      MOCLDY    29  20  69 W8        29.86F WCI  21          
FITCHBURG      CLOUDY    32  22  66 W6        29.90F WCI  26          
ORANGE         MOCLDY    30  22  72 S5        29.89F WCI  25          
SPRINGFIELD    CLOUDY    29  22  73 S5        29.88F WCI  24          
WESTFIELD      CLOUDY    27  23  85 CALM      29.89F                  
NORTH ADAMS    LGT SNOW  29  24  82 CALM      29.87F                  
PITTSFIELD     LGT SNOW  28  20  71 W6        29.83F WCI  22          
$$
 
RIZALL-201000-
RHODE ISLAND
  
CITY           SKY/WX    TMP DP  RH WIND       PRES   REMARKS
PROVIDENCE     CLOUDY    33  22  63 SW8       29.93F WCI  26          
NEWPORT        CLOUDY    34  23  64 VRB7      29.92F WCI  28          
BLOCK ISLAND   CLOUDY    37  22  54 W9G16     29.93F WCI  30          
SMITHFIELD     MOCLDY    29  24  82 SW3       29.90F                  
WESTERLY       CLOUDY    33  20  58 VRB5      29.92F WCI  29          
$$
 
CTZALL-201000-
CONNECTICUT
  
CITY           SKY/WX    TMP DP  RH WIND       PRES   REMARKS
BRADLEY INTL   CLOUDY    30  23  75 S5        29.90F WCI  25          
HARTFORD       CLOUDY    31  23  72 SE3       29.92F                  
BRIDGEPORT     CLOUDY    33  24  69 CALM      29.91F                  
DANBURY        CLOUDY    29  24  82 CALM      29.89F                  
GROTON         CLOUDY    34  21  59 N9        29.90F WCI  27          
NEW HAVEN      CLOUDY    34  23  64 CALM      29.91F                  
CHESTER        MOCLDY    32  21  64 CALM      29.89F                  
MERIDEN        CLOUDY    29  24  82 CALM      29.91F                  
WILLIMANTIC    CLOUDY    27  24  89 CALM      29.92F                  
OXFORD         CLOUDY    31  22  69 CALM      29.88F                  
$$

MEZ002-015-021-024-NHZ003-005-008-011-012-014-VTZ005-008-201000-
NORTHERN NEW ENGLAND
  
CITY           SKY/WX    TMP DP  RH WIND       PRES   REMARKS
PORTLAND ME    MOCLDY    21  18  88 CALM      29.86F                  
BANGOR ME      CLOUDY    20  10  65 NW3       29.88F                  
CONCORD NH     MOCLDY    22  17  81 CALM      29.87F                  
MANCHESTER NH  CLOUDY    31  18  58 S3        29.87F                  
NASHUA NH      MOCLDY    28  24  85 CALM      29.90F                  
PORTSMOUTH NH  CLOUDY    31  17  54 SW6       29.86F WCI  26          
JAFFREY NH     MOCLDY    28  18  66 CALM      29.84F                  
KEENE NH       CLOUDY    28  22  78 CALM      29.88F                  
BURLINGTON VT  FLURRIES  26  23  88 CALM      29.86F                  
MT. WASHINGTON SNOWSHWR   5   5 100 W39         N/A  VSB 1/16WCI -22  
$$

NYZ052-076-201000-
EASTERN NEW YORK
  
CITY           SKY/WX    TMP DP  RH WIND       PRES   REMARKS
ALBANY         CLOUDY    28  22  78 CALM      29.88F                  
NEW YORK CITY  CLOUDY    40  19  43 SW7       29.91F                  
$$
 
ANZALL-201000-
MARINE OBSERVATIONS
  
STATION/POSITION TIME  TEMP    WIND        PRES    VSBY  WAVE
                       AIR SEA DIR/SP/G                  HT/PER
                 (UTC) (F)     (DEG/KT/KT) (MB)    (MI)  (FT/S)
BOSTON BUOY      0840   36 43  250/ 14/ 17 1013.4F
BUZZARDS BAY     0800          270/ 22/ 24 1015.1F
NANTUCKET SOUND  0840      40  270/ 12/ 14   N/A
MASS BAY-STELLWA 0804   37     260/ 16/ 19 1011.7F  1 7/8  3/ 4
ISLE OF SHOALS   0800   34     250/ 19/ 23 1011.9F
S OF BLOCK IS    0826      48                N/A           6/ 7
$$

......................KEY.........................
  SKY/WX - SKY CONDITION/PRESENT WEATHER
  TMP    - TEMPERATURE IN FAHRENHEIT
  DWPT   - DEWPOINT IN FAHRENHEIT
  RH     - RELATIVE HUMIDITY IN PERCENT
  WIND   - DIRECTION AND SPEED IN MPH
  PRES   - MEAN SEA LEVEL PRESSURE IN INCHES OF HG
  WCI    - WIND CHILL INDEX
  VSB    - VISIBILITY IN MILES
  HX     - HEAT INDEX
  TC     - TEMPERATURE IN CELSIUS
  VRB    - VARIABLE WIND DIRECTION
  N/A    - NOT AVAILABLE
  
      

Other recent Regional Weather Roundups

Thu Jan 21, 9:04am

Thu Jan 21, 7:04am

Thu Jan 21, 6:04am

Thu Jan 21, 5:04am

Thu Jan 21, 4:04am

Thu Jan 21, 3:04am

Thu Jan 21, 2:04am

Thu Jan 21, 1:04am

Thu Jan 21, 12:04am

Wed Jan 20, 11:04pm

Wed Jan 20, 10:05pm

Wed Jan 20, 9:04pm

Wed Jan 20, 8:04pm

Wed Jan 20, 7:04pm

Wed Jan 20, 6:05pm

Wed Jan 20, 5:05pm

Wed Jan 20, 1:04pm

Wed Jan 20, 12:04pm

Wed Jan 20, 11:04am

Wed Jan 20, 10:04am

Wed Jan 20, 9:05am

Wed Jan 20, 8:04am

Wed Jan 20, 7:04am

Wed Jan 20, 6:04am

Wed Jan 20, 5:04am

Wed Jan 20, 3:05am

Wed Jan 20, 2:04am

Wed Jan 20, 1:04am

Wed Jan 20, 12:04am

Tue Jan 19, 11:04pm

Tue Jan 19, 10:04pm

Tue Jan 19, 9:04pm

Tue Jan 19, 8:04pm

Tue Jan 19, 7:04pm

Tue Jan 19, 6:05pm

Tue Jan 19, 5:04pm

Tue Jan 19, 4:05pm

Tue Jan 19, 3:04pm

Tue Jan 19, 2:04pm

Tue Jan 19, 1:04pm

Tue Jan 19, 12:05pm

Tue Jan 19, 11:04am

Tue Jan 19, 10:05am

Tue Jan 19, 9:04am

Tue Jan 19, 8:04am

Tue Jan 19, 7:04am

Tue Jan 19, 6:04am

Tue Jan 19, 5:04am

Tue Jan 19, 4:04am

Tue Jan 19, 3:04am

Tue Jan 19, 2:04am

Tue Jan 19, 1:04am

Tue Jan 19, 12:04am

Mon Jan 18, 11:04pm

Mon Jan 18, 10:04pm

Mon Jan 18, 9:04pm

Mon Jan 18, 8:05pm

Mon Jan 18, 7:04pm

Mon Jan 18, 6:05pm

Mon Jan 18, 5:04pm

Mon Jan 18, 4:04pm

Mon Jan 18, 3:04pm

Mon Jan 18, 2:04pm

Mon Jan 18, 1:04pm

Mon Jan 18, 12:04pm

Mon Jan 18, 11:04am

Mon Jan 18, 10:04am

Mon Jan 18, 9:04am

Mon Jan 18, 8:04am

Mon Jan 18, 7:04am

Mon Jan 18, 6:04am

Mon Jan 18, 5:04am

Mon Jan 18, 4:04am

Mon Jan 18, 3:04am

Mon Jan 18, 2:04am

Mon Jan 18, 1:04am

Mon Jan 18, 12:04am

Sun Jan 17, 11:04pm

Sun Jan 17, 10:04pm

Sun Jan 17, 9:04pm

Sun Jan 17, 8:04pm

Sun Jan 17, 7:04pm

Sun Jan 17, 6:04pm

Sun Jan 17, 5:04pm

Sun Jan 17, 4:05pm

Sun Jan 17, 3:04pm

Sun Jan 17, 2:04pm

Sun Jan 17, 1:04pm

Sun Jan 17, 12:04pm

Sun Jan 17, 11:04am

Sun Jan 17, 10:04am

Sun Jan 17, 9:04am

Sun Jan 17, 8:04am

Sun Jan 17, 7:04am

Sun Jan 17, 6:04am

Sun Jan 17, 5:04am

Sun Jan 17, 4:04am

Sun Jan 17, 3:04am

Sun Jan 17, 2:04am

Sun Jan 17, 1:04am

Sun Jan 17, 12:04am

Sat Jan 16, 11:05pm

Sat Jan 16, 10:04pm

Sat Jan 16, 9:04pm

Sat Jan 16, 8:05pm

Sat Jan 16, 7:04pm

Sat Jan 16, 6:04pm

Sat Jan 16, 5:05pm

Sat Jan 16, 4:05pm

Sat Jan 16, 3:05pm

Sat Jan 16, 2:04pm

Sat Jan 16, 1:04pm

Sat Jan 16, 12:04pm

Sat Jan 16, 11:04am

Sat Jan 16, 10:05am

Sat Jan 16, 9:04am

Sat Jan 16, 8:04am

Sat Jan 16, 7:04am

Sat Jan 16, 6:04am

Sat Jan 16, 5:04am

Sat Jan 16, 4:04am

Sat Jan 16, 3:05am

Sat Jan 16, 2:04am

Sat Jan 16, 1:04am

Sat Jan 16, 12:05am

Fri Jan 15, 11:05pm

Fri Jan 15, 10:04pm

Fri Jan 15, 9:04pm

Fri Jan 15, 8:04pm

Fri Jan 15, 7:05pm

Fri Jan 15, 6:05pm

Fri Jan 15, 5:05pm

Fri Jan 15, 4:05pm

Fri Jan 15, 3:04pm

Fri Jan 15, 2:05pm

Fri Jan 15, 1:04pm

Fri Jan 15, 12:05pm

Fri Jan 15, 11:04am

Fri Jan 15, 10:04am

Fri Jan 15, 9:05am

Fri Jan 15, 8:04am

Fri Jan 15, 7:04am

Fri Jan 15, 6:04am

Fri Jan 15, 5:05am

Fri Jan 15, 4:04am

Fri Jan 15, 3:04am

Fri Jan 15, 2:04am

Fri Jan 15, 1:04am

Fri Jan 15, 12:05am

Thu Jan 14, 11:04pm

Thu Jan 14, 10:04pm

Thu Jan 14, 9:04pm

Thu Jan 14, 8:05pm

Thu Jan 14, 7:04pm

Thu Jan 14, 6:04pm

Thu Jan 14, 5:04pm

Thu Jan 14, 4:05pm

Thu Jan 14, 3:04pm

Thu Jan 14, 2:04pm

Thu Jan 14, 1:04pm

Thu Jan 14, 12:05pm

Thu Jan 14, 11:05am

Thu Jan 14, 10:04am

Thu Jan 14, 9:04am

Thu Jan 14, 8:04am

Thu Jan 14, 7:04am

Thu Jan 14, 6:04am

Thu Jan 14, 5:04am

Thu Jan 14, 4:04am

Thu Jan 14, 3:04am

Thu Jan 14, 2:04am

Thu Jan 14, 1:04am

Thu Jan 14, 12:04am

Wed Jan 13, 11:04pm

Wed Jan 13, 10:04pm

Wed Jan 13, 9:04pm

Wed Jan 13, 8:05pm

Wed Jan 13, 7:04pm

Wed Jan 13, 6:04pm

Wed Jan 13, 5:04pm

Wed Jan 13, 4:04pm

Wed Jan 13, 3:05pm

Wed Jan 13, 2:04pm

Wed Jan 13, 1:04pm

Wed Jan 13, 12:04pm

Wed Jan 13, 11:04am

Wed Jan 13, 10:04am

Wed Jan 13, 9:05am

Wed Jan 13, 8:04am

Wed Jan 13, 7:04am

Wed Jan 13, 6:04am

Wed Jan 13, 5:04am

Wed Jan 13, 4:04am

Wed Jan 13, 3:04am

Wed Jan 13, 2:04am

Wed Jan 13, 1:04am

Wed Jan 13, 12:05am

Tue Jan 12, 11:04pm

Tue Jan 12, 10:04pm

Tue Jan 12, 9:04pm

Tue Jan 12, 8:05pm

Tue Jan 12, 7:04pm

Meta data:

ID: d16a2815-14fe-47bd-bfc5-d1175e7c5cb4
Link: https://api.weather.gov/products/d16a2815-14fe-47bd-bfc5-d1175e7c5cb4